| time (UTC) | temp F | wind direction | speed MPH | gust MPH | rain 1hr in | rain 24hr in | rain mn in | humidity % | barometer mb |
| 20260502231017 | 58 | 0.0 | 0.0 | 0.00 | 0.00 | 0.00 | 71 | 1021.0 | |
| 20260502230017 | 58 | 0.0 | 0.0 | 0.00 | 0.00 | 0.00 | 71 | 1021.1 | |
| 20260502225017 | 58 | 0.0 | 0.0 | 0.00 | 0.00 | 0.00 | 71 | 1021.0 | |
| 20260502224057 | 58 | 0.0 | 1.0 | 0.00 | 0.00 | 0.00 | 70 | 1021.1 | |
| 20260502223016 | 58 | 0.0 | 1.0 | 0.00 | 0.00 | 0.00 | 70 | 1021.1 | |
| 20260502222016 | 58 | 0.0 | 1.0 | 0.00 | 0.00 | 0.00 | 70 | 1021.2 | |
| 20260502221017 | 58 | 0.0 | 1.0 | 0.00 | 0.00 | 0.00 | 70 | 1021.2 | |
| 20260502220017 | 58 | 0.0 | 1.0 | 0.00 | 0.00 | 0.00 | 70 | 1021.1 | |
| 20260502215016 | 59 | 0.0 | 0.0 | 0.00 | 0.00 | 0.00 | 69 | 1021.1 | |
| 20260502214016 | 59 | 0.0 | 0.0 | 0.00 | 0.00 | 0.00 | 69 | 1021.1 | |
| 20260502213015 | 60 | 0.0 | 1.0 | 0.00 | 0.00 | 0.00 | 67 | 1020.9 | |
| 20260502212016 | 61 | 0.0 | 2.0 | 0.00 | 0.00 | 0.00 | 66 | 1021.0 | |
| 20260502211016 | 62 | 0.0 | 0.0 | 0.00 | 0.00 | 0.00 | 64 | 1020.9 | |
| 20260502210015 | 62 | 0.0 | 0.0 | 0.00 | 0.00 | 0.00 | 64 | 1020.9 | |
| 20260502205015 | 62 | 0.0 | 0.0 | 0.00 | 0.00 | 0.00 | 63 | 1020.9 | |
| 20260502204016 | 62 | 0.0 | 0.0 | 0.00 | 0.00 | 0.00 | 63 | 1020.9 | |
| 20260502203016 | 63 | 0.0 | 0.0 | 0.00 | 0.00 | 0.00 | 62 | 1021.0 | |
| 20260502202016 | 63 | 0.0 | 0.0 | 0.00 | 0.00 | 0.00 | 62 | 1021.0 | |
| 20260502201016 | 63 | 0.0 | 0.0 | 0.00 | 0.00 | 0.00 | 61 | 1021.1 | |
| 20260502200055 | 63 | 0.0 | 0.0 | 0.00 | 0.00 | 0.00 | 61 | 1021.1 | |
| 20260502195016 | 64 | 0.0 | 0.0 | 0.00 | 0.00 | 0.00 | 60 | 1021.1 | |
| 20260502194016 | 64 | 0.0 | 0.0 | 0.00 | 0.00 | 0.00 | 59 | 1021.0 | |
| 20260502193055 | 65 | 0.0 | 1.0 | 0.00 | 0.00 | 0.00 | 59 | 1020.8 | |
| 20260502192015 | 65 | 0.0 | 0.0 | 0.00 | 0.00 | 0.00 | 58 | 1020.8 | |
| 20260502191015 | 66 | 0.0 | 0.0 | 0.00 | 0.00 | 0.00 | 57 | 1020.8 | |
| 20260502190016 | 66 | 0.0 | 0.0 | 0.00 | 0.00 | 0.00 | 56 | 1020.6 | |
| 20260502185016 | 67 | 0.0 | 1.0 | 0.00 | 0.00 | 0.00 | 55 | 1020.5 | |
| 20260502184056 | 67 | 0.0 | 0.0 | 0.00 | 0.00 | 0.00 | 54 | 1020.4 | |
| 20260502183015 | 68 | 0.0 | 0.0 | 0.00 | 0.00 | 0.00 | 53 | 1020.4 | |
| 20260502182015 | 69 | 0.0 | 0.0 | 0.00 | 0.00 | 0.00 | 52 | 1020.3 | |
| 20260502164015 | 80 | 0.0 | 1.0 | 0.00 | 0.00 | 0.00 | 38 | 1020.1 | |
| 20260502163015 | 79 | 225 | 1.0 | 2.0 | 0.00 | 0.00 | 0.00 | 36 | 1020.2 |
| 20260502162016 | 79 | 225 | 3.0 | 7.0 | 0.00 | 0.00 | 0.00 | 35 | 1020.3 |
| 20260502161016 | 79 | 90 | 1.0 | 5.0 | 0.00 | 0.00 | 0.00 | 35 | 1020.2 |
| 20260502151455 | 79 | 180 | 1.0 | 1.0 | 0.00 | 0.00 | 0.00 | 36 | 1020.7 |
| 20260502150415 | 79 | 248 | 3.0 | 7.0 | 0.00 | 0.00 | 0.00 | 35 | 1020.9 |
| 20260502130455 | 79 | 135 | 2.0 | 4.0 | 0.00 | 0.00 | 0.00 | 35 | 1022.2 |
| 20260502123415 | 77 | 0.0 | 1.0 | 0.00 | 0.00 | 0.00 | 36 | 1022.6 | |
| 20260502122415 | 77 | 293 | 3.0 | 5.0 | 0.00 | 0.00 | 0.00 | 36 | 1022.9 |
| 20260502121455 | 77 | 270 | 3.0 | 6.0 | 0.00 | 0.00 | 0.00 | 36 | 1023.0 |
| 20260502120415 | 77 | 225 | 3.0 | 5.0 | 0.00 | 0.00 | 0.00 | 35 | 1023.1 |
| 20260502115415 | 77 | 248 | 4.0 | 7.0 | 0.00 | 0.00 | 0.00 | 35 | 1023.2 |
| 20260502113415 | 77 | 0.0 | 2.0 | 0.00 | 0.00 | 0.00 | 37 | 1023.5 | |
| 20260502112415 | 76 | 158 | 3.0 | 5.0 | 0.00 | 0.00 | 0.00 | 37 | 1023.7 |
| 20260502111417 | 76 | 203 | 3.0 | 5.0 | 0.00 | 0.00 | 0.00 | 36 | 1023.8 |
| 20260502110417 | 75 | 248 | 4.0 | 10.0 | 0.00 | 0.00 | 0.00 | 36 | 1023.9 |
| 20260502105417 | 75 | 225 | 3.0 | 7.0 | 0.00 | 0.00 | 0.00 | 37 | 1024.1 |
| 20260502104418 | 75 | 225 | 3.0 | 7.0 | 0.00 | 0.00 | 0.00 | 38 | 1024.1 |
| 20260502103017 | 74 | 158 | 1.0 | 2.0 | 0.00 | 0.00 | 0.00 | 38 | 1024.3 |
| 20260502102017 | 74 | 270 | 3.0 | 9.0 | 0.00 | 0.00 | 0.00 | 39 | 1024.4 |
| 20260502101017 | 74 | 135 | 3.0 | 4.0 | 0.00 | 0.00 | 0.00 | 39 | 1024.6 |
| 20260502091057 | 70 | 0.0 | 2.0 | 0.00 | 0.00 | 0.00 | 45 | 1025.4 | |
| 20260502071017 | 62 | 0.0 | 0.0 | 0.00 | 0.00 | 0.00 | 59 | 1026.1 | |
| 20260502070017 | 62 | 203 | 1.0 | 2.0 | 0.00 | 0.00 | 0.00 | 57 | 1026.2 |
| 20260502065017 | 61 | 0.0 | 1.0 | 0.00 | 0.00 | 0.00 | 57 | 1026.1 | |
| 20260502064057 | 61 | 0.0 | 0.0 | 0.00 | 0.00 | 0.00 | 56 | 1026.2 | |
| 20260502063017 | 60 | 0.0 | 0.0 | 0.00 | 0.00 | 0.00 | 56 | 1026.2 | |
| 20260502062017 | 60 | 0.0 | 0.0 | 0.00 | 0.00 | 0.00 | 56 | 1026.4 | |
| 20260502061017 | 61 | 0.0 | 0.0 | 0.00 | 0.00 | 0.00 | 56 | 1026.3 | |
| 20260502060017 | 62 | 0.0 | 0.0 | 0.00 | 0.00 | 0.00 | 54 | 1026.4 | |
| 20260502054017 | 60 | 0.0 | 0.0 | 0.00 | 0.00 | 0.00 | 57 | 1026.3 | |
| 20260502053017 | 60 | 0.0 | 0.0 | 0.00 | 0.00 | 0.00 | 58 | 1026.4 | |
| 20260502052017 | 57 | 0.0 | 0.0 | 0.00 | 0.00 | 0.00 | 62 | 1026.4 | |
| 20260502051017 | 55 | 0.0 | 0.0 | 0.00 | 0.00 | 0.00 | 64 | 1026.4 | |
| 20260502050017 | 51 | 0.0 | 0.0 | 0.00 | 0.00 | 0.00 | 70 | 1026.4 | |
| 20260502045017 | 50 | 0.0 | 0.0 | 0.00 | 0.00 | 0.00 | 70 | 1026.4 | |
| 20260502044017 | 50 | 0.0 | 0.0 | 0.00 | 0.00 | 0.00 | 72 | 1026.3 | |
| 20260502043017 | 50 | 0.0 | 0.0 | 0.00 | 0.00 | 0.00 | 72 | 1026.3 | |
| 20260502042017 | 49 | 0.0 | 0.0 | 0.00 | 0.00 | 0.00 | 72 | 1026.3 | |
| 20260502041057 | 49 | 0.0 | 0.0 | 0.00 | 0.00 | 0.00 | 72 | 1026.2 | |
| 20260502040017 | 49 | 0.0 | 0.0 | 0.00 | 0.00 | 0.00 | 72 | 1026.3 | |
| 20260502035017 | 50 | 0.0 | 0.0 | 0.00 | 0.00 | 0.00 | 70 | 1026.1 | |
| 20260502034034 | 50 | 0.0 | 0.0 | 0.00 | 0.00 | 0.00 | 70 | 1026.2 | |
| 20260502033017 | 50 | 0.0 | 0.0 | 0.00 | 0.00 | 0.00 | 70 | 1026.2 | |
| 20260502032017 | 50 | 0.0 | 1.0 | 0.00 | 0.00 | 0.00 | 70 | 1026.2 | |
| 20260502031017 | 50 | 0.0 | 1.0 | 0.00 | 0.00 | 0.00 | 70 | 1026.2 | |
| 20260502030017 | 50 | 0.0 | 0.0 | 0.00 | 0.00 | 0.00 | 71 | 1026.4 | |
| 20260502025017 | 50 | 0.0 | 0.0 | 0.00 | 0.00 | 0.00 | 70 | 1026.5 | |
| 20260502024017 | 51 | 0.0 | 0.0 | 0.00 | 0.00 | 0.00 | 69 | 1026.6 | |
| 20260502023017 | 51 | 0.0 | 0.0 | 0.00 | 0.00 | 0.00 | 68 | 1026.5 | |
| 20260502022017 | 51 | 0.0 | 0.0 | 0.00 | 0.00 | 0.00 | 69 | 1026.5 | |
| 20260502021017 | 51 | 0.0 | 0.0 | 0.00 | 0.00 | 0.00 | 68 | 1026.6 | |
| 20260502020017 | 51 | 0.0 | 0.0 | 0.00 | 0.00 | 0.00 | 68 | 1026.6 | |
| 20260502015017 | 52 | 0.0 | 1.0 | 0.00 | 0.00 | 0.00 | 68 | 1026.6 | |
| 20260502014017 | 52 | 0.0 | 0.0 | 0.00 | 0.00 | 0.00 | 67 | 1026.5 | |
| 20260502013017 | 52 | 0.0 | 1.0 | 0.00 | 0.00 | 0.00 | 67 | 1026.6 | |
| 20260502012017 | 52 | 0.0 | 1.0 | 0.00 | 0.00 | 0.00 | 67 | 1026.7 | |
| 20260502011016 | 52 | 45 | 1.0 | 2.0 | 0.00 | 0.00 | 0.00 | 66 | 1026.7 |
| 20260502010017 | 52 | 0.0 | 1.0 | 0.00 | 0.00 | 0.00 | 66 | 1026.7 | |
| 20260502005017 | 53 | 0.0 | 1.0 | 0.00 | 0.00 | 0.00 | 66 | 1026.7 | |
| 20260502004016 | 52 | 0.0 | 0.0 | 0.00 | 0.00 | 0.00 | 66 | 1026.7 | |
| 20260502003017 | 52 | 0.0 | 0.0 | 0.00 | 0.00 | 0.00 | 65 | 1026.8 | |
| 20260502002016 | 53 | 0.0 | 0.0 | 0.00 | 0.00 | 0.00 | 64 | 1026.7 | |
| 20260502001017 | 53 | 0.0 | 1.0 | 0.00 | 0.00 | 0.00 | 64 | 1026.8 | |
| 20260502000017 | 53 | 45 | 1.0 | 4.0 | 0.00 | 0.00 | 0.00 | 63 | 1026.8 |
| 20260501234017 | 54 | 0.0 | 1.0 | 0.00 | 0.00 | 0.00 | 62 | 1026.9 | |
| 20260501232017 | 55 | 0.0 | 0.0 | 0.00 | 0.00 | 0.00 | 60 | 1026.7 |